Location: Dackenheim
(49.5215°N, 8.1854°E)
Time: 22:33:28
(UTC+00:00)

BlueWalker 3 - Pass Details

Date: 28 January 2026
Orbit: 450 x 461 km, 53.2° (Epoch: 11 February)

Event Time Altitude Azimuth Distance (km) Brightness Sun altitude
Rises 19:41:14 0° 289° (WNW) 2,459 6.5 -33.1°
Reaches altitude 10° 19:43:24 10° 294° (WNW) 1,585 5.3 -33.5°
Enters shadow 19:43:28 10° 294° (WNW) 1,563 5.2 -33.5°
